Radiation Dose at Monitoring Post of Fukushima Daini Nuclear Power Station
Date,Time,MP-1(microSv/h),MP-2(microSv/h),MP-3(microSv/h),MP-4(microSv/h),MP-5(microSv/h),MP-6(microSv/h),MP-7(microSv/h),Wind Direction,Wind Velocity(m/s),Rain
2015/01/12,00:00,0.593,0.377,0.631,0.571,0.555,0.258,0.233,northeast,1.4,No
2015/01/12,00:10,0.593,0.376,0.631,0.572,0.557,0.257,0.231,north,2.1,No
2015/01/12,00:20,0.593,0.377,0.632,0.569,0.557,0.259,0.232,north,2.9,No
2015/01/12,00:30,0.595,0.377,0.632,0.571,0.556,0.257,0.231,north,2.1,No
2015/01/12,00:40,0.593,0.377,0.631,0.570,0.557,0.258,0.232,north-northwest,3.0,No
2015/01/12,00:50,0.593,0.377,0.633,0.571,0.556,0.258,0.232,north,4.6,No
2015/01/12,01:00,0.595,0.378,0.632,0.569,0.556,0.257,0.232,north-northwest,3.7,No
2015/01/12,01:10,0.592,0.376,0.632,0.570,0.556,0.259,0.231,north-northwest,4.2,No
2015/01/12,01:20,0.594,0.376,0.632,0.570,0.556,0.257,0.232,northwest,4.5,No
2015/01/12,01:30,0.592,0.375,0.632,0.570,0.556,0.258,0.231,west-northwest,7.3,No
2015/01/12,01:40,0.593,0.377,0.634,0.571,0.556,0.258,0.232,west-northwest,11.9,No
2015/01/12,01:50,0.594,0.377,0.631,0.570,0.556,0.258,0.232,west-northwest,10.9,No
2015/01/12,02:00,0.593,0.375,0.632,0.571,0.556,0.258,0.231,west-northwest,10.0,Yes
2015/01/12,02:10,0.594,0.377,0.633,0.569,0.557,0.257,0.231,west-northwest,9.3,Yes
2015/01/12,02:20,0.594,0.377,0.633,0.570,0.554,0.258,0.232,west-northwest,10.1,No
2015/01/12,02:30,0.593,0.377,0.633,0.570,0.555,0.257,0.232,northwest,9.0,No
2015/01/12,02:40,0.594,0.378,0.633,0.571,0.556,0.258,0.232,west-northwest,9.0,No
2015/01/12,02:50,0.594,0.378,0.633,0.572,0.556,0.258,0.232,west-northwest,8.4,No
2015/01/12,03:00,0.594,0.379,0.632,0.571,0.556,0.256,0.230,northwest,6.7,No
2015/01/12,03:10,0.594,0.378,0.632,0.570,0.558,0.258,0.230,west-northwest,6.1,No
2015/01/12,03:20,0.594,0.377,0.634,0.570,0.555,0.259,0.232,west-northwest,7.2,No
2015/01/12,03:30,0.593,0.377,0.632,0.571,0.555,0.258,0.232,west-northwest,7.3,No
2015/01/12,03:40,0.595,0.377,0.632,0.571,0.556,0.257,0.232,west-northwest,11.2,No
2015/01/12,03:50,0.595,0.377,0.632,0.572,0.558,0.258,0.232,west-northwest,12.7,No
2015/01/12,04:00,0.596,0.376,0.632,0.572,0.556,0.258,0.231,west-northwest,10.9,No
2015/01/12,04:10,0.594,0.377,0.631,0.570,0.557,0.257,0.231,west-northwest,9.1,No
2015/01/12,04:20,0.594,0.377,0.630,0.571,0.557,0.258,0.232,northwest,7.8,No
2015/01/12,04:30,0.594,0.378,0.634,0.572,0.556,0.257,0.233,north-northwest,9.4,No
2015/01/12,04:40,0.595,0.376,0.633,0.571,0.556,0.258,0.233,northwest,10.1,No
2015/01/12,04:50,0.594,0.377,0.634,0.570,0.557,0.258,0.231,west-northwest,9.6,No
2015/01/12,05:00,0.595,0.377,0.632,0.572,0.556,0.258,0.231,west-northwest,7.4,No
2015/01/12,05:10,0.594,0.376,0.633,0.571,0.556,0.257,0.232,west-northwest,7.5,No
2015/01/12,05:20,0.596,0.376,0.633,0.570,0.555,0.257,0.231,northwest,5.8,No
2015/01/12,05:30,0.595,0.377,0.633,0.570,0.556,0.257,0.231,northwest,6.9,No
2015/01/12,05:40,0.595,0.377,0.633,0.570,0.556,0.258,0.231,northwest,6.3,No
2015/01/12,05:50,0.596,0.377,0.633,0.569,0.557,0.257,0.231,north-northwest,4.6,No
2015/01/12,06:00,0.596,0.378,0.631,0.571,0.557,0.257,0.231,northwest,3.9,No
2015/01/12,06:10,0.595,0.378,0.632,0.571,0.557,0.258,0.231,north-northwest,3.1,No
2015/01/12,06:20,0.594,0.376,0.633,0.571,0.556,0.258,0.231,north-northwest,5.6,No
2015/01/12,06:30,0.595,0.377,0.632,0.570,0.558,0.258,0.232,north-northwest,5.7,No
2015/01/12,06:40,0.594,0.376,0.632,0.571,0.557,0.258,0.231,north-northwest,5.6,No
2015/01/12,06:50,0.595,0.378,0.633,0.571,0.555,0.256,0.231,north-northwest,6.2,No
2015/01/12,07:00,0.595,0.377,0.632,0.571,0.557,0.258,0.232,north-northwest,6.7,No
2015/01/12,07:10,0.597,0.377,0.633,0.570,0.557,0.258,0.231,north-northwest,6.4,No
2015/01/12,07:20,0.595,0.377,0.631,0.571,0.558,0.258,0.231,north-northwest,4.9,No
2015/01/12,07:30,0.593,0.376,0.634,0.570,0.556,0.258,0.231,north-northwest,4.4,No
2015/01/12,07:40,0.594,0.375,0.633,0.570,0.556,0.257,0.231,north-northwest,2.3,No
2015/01/12,07:50,0.594,0.377,0.634,0.571,0.556,0.257,0.231,north-northwest,1.7,No
2015/01/12,08:00,0.594,0.376,0.633,0.571,0.558,0.257,0.232,north,1.6,No
2015/01/12,08:10,0.595,0.378,0.633,0.573,0.557,0.257,0.229,north-northwest,2.0,No
2015/01/12,08:20,0.595,0.376,0.631,0.572,0.557,0.258,0.230,north-northwest,1.9,No
2015/01/12,08:30,0.594,0.376,0.634,0.571,0.557,0.257,0.230,north-northwest,4.3,No
2015/01/12,08:40,0.593,0.377,0.634,0.573,0.557,0.255,0.231,northwest,4.8,No
2015/01/12,08:50,0.595,0.377,0.634,0.572,0.555,0.256,0.231,northwest,6.0,No
2015/01/12,09:00,0.593,0.377,0.634,0.571,0.557,0.256,0.230,northwest,4.2,No
2015/01/12,09:10,0.596,0.378,0.635,0.571,0.556,0.257,0.231,west-northwest,5.8,No
2015/01/12,09:20,0.595,0.378,0.632,0.572,0.557,0.258,0.233,west-northwest,6.1,No
2015/01/12,09:30,0.595,0.378,0.634,0.573,0.556,0.257,0.231,west-northwest,5.6,Yes
2015/01/12,09:40,0.595,0.377,0.631,0.573,0.557,0.258,0.231,northwest,4.7,No
2015/01/12,09:50,0.596,0.378,0.633,0.572,0.556,0.258,0.232,north-northwest,4.9,No
2015/01/12,10:00,0.596,0.378,0.634,0.572,0.558,0.259,0.231,north-northwest,5.0,No
2015/01/12,10:10,0.596,0.377,0.633,0.573,0.559,0.258,0.232,west-northwest,3.9,No
2015/01/12,10:20,0.596,0.378,0.634,0.574,0.558,0.258,0.231,north-northwest,2.5,No
2015/01/12,10:30,0.596,0.379,0.634,0.573,0.557,0.258,0.233,west,4.1,No
2015/01/12,10:40,0.595,0.379,0.633,0.573,0.558,0.259,0.233,west,4.5,No
2015/01/12,10:50,0.597,0.379,0.636,0.574,0.558,0.260,0.234,west,3.2,No
2015/01/12,11:00,0.597,0.378,0.634,0.576,0.559,0.260,0.233,north,3.0,No
2015/01/12,11:10,0.597,0.380,0.634,0.575,0.559,0.259,0.233,west,2.5,No
2015/01/12,11:20,0.598,0.379,0.634,0.574,0.559,0.259,0.233,north,2.0,No
2015/01/12,11:30,0.598,0.378,0.634,0.576,0.558,0.259,0.234,west-northwest,4.5,No
2015/01/12,11:40,0.598,0.378,0.635,0.575,0.559,0.259,0.234,northwest,5.1,No
2015/01/12,11:50,0.598,0.379,0.639,0.576,0.559,0.260,0.233,west-northwest,5.4,No
2015/01/12,12:00,0.599,0.379,0.636,0.577,0.562,0.260,0.233,northwest,6.2,No
2015/01/12,12:10,0.597,0.380,0.636,0.577,0.561,0.260,0.233,west-northwest,5.0,No
2015/01/12,12:20,0.599,0.380,0.636,0.575,0.561,0.260,0.234,north,4.6,No
2015/01/12,12:30,0.600,0.380,0.636,0.577,0.560,0.260,0.233,north-northwest,5.7,No
2015/01/12,12:40,0.600,0.380,0.637,0.576,0.560,0.259,0.235,northwest,5.0,No
2015/01/12,12:50,0.599,0.379,0.636,0.577,0.561,0.261,0.234,west,4.8,No
2015/01/12,13:00,0.600,0.380,0.636,0.577,0.561,0.260,0.234,west-northwest,4.8,No
2015/01/12,13:10,0.599,0.380,0.637,0.576,0.560,0.260,0.234,west-northwest,6.2,No
2015/01/12,13:20,0.600,0.381,0.636,0.579,0.559,0.262,0.234,west-northwest,6.3,No
2015/01/12,13:30,0.600,0.379,0.638,0.578,0.561,0.260,0.234,west-northwest,7.6,No
2015/01/12,13:40,0.598,0.379,0.637,0.578,0.560,0.263,0.235,west-northwest,6.4,No
2015/01/12,13:50,0.600,0.380,0.638,0.575,0.561,0.261,0.234,west-northwest,6.5,No
2015/01/12,14:00,0.601,0.381,0.637,0.578,0.562,0.261,0.234,west-northwest,5.3,No
2015/01/12,14:10,0.600,0.381,0.638,0.576,0.561,0.261,0.236,north-northwest,5.6,No
2015/01/12,14:20,0.602,0.380,0.638,0.577,0.560,0.261,0.233,northwest,4.1,No
2015/01/12,14:30,0.600,0.379,0.637,0.578,0.561,0.260,0.235,northwest,5.8,No
2015/01/12,14:40,0.601,0.380,0.638,0.576,0.562,0.261,0.235,north-northwest,5.8,No
2015/01/12,14:50,0.600,0.380,0.639,0.578,0.564,0.260,0.234,northwest,3.9,No
2015/01/12,15:00,0.601,0.380,0.637,0.576,0.561,0.260,0.236,north-northwest,3.6,No
2015/01/12,15:10,0.602,0.381,0.636,0.577,0.562,0.259,0.236,north-northwest,2.8,No
2015/01/12,15:20,0.601,0.379,0.637,0.577,0.561,0.260,0.234,north,3.6,No
2015/01/12,15:30,0.600,0.380,0.637,0.579,0.561,0.260,0.237,north,2.9,No
2015/01/12,15:40,0.600,0.381,0.636,0.576,0.561,0.260,0.235,north,5.0,No
2015/01/12,15:50,0.599,0.380,0.639,0.577,0.563,0.259,0.235,north,5.0,No
2015/01/12,16:00,0.600,0.380,0.638,0.577,0.563,0.261,0.235,north,6.0,No
2015/01/12,16:10,0.600,0.379,0.636,0.579,0.562,0.260,0.234,north-northwest,4.5,No
2015/01/12,16:20,0.600,0.382,0.637,0.576,0.562,0.259,0.235,north-northwest,4.4,No
2015/01/12,16:30,0.599,0.381,0.636,0.577,0.562,0.260,0.236,north,5.7,No
2015/01/12,16:40,0.601,0.379,0.637,0.577,0.561,0.260,0.236,north,6.1,No
2015/01/12,16:50,0.601,0.380,0.638,0.577,0.561,0.260,0.234,north,6.8,No
2015/01/12,17:00,0.601,0.381,0.638,0.576,0.562,0.261,0.235,north,8.1,No
2015/01/12,17:10,0.599,0.380,0.637,0.576,0.561,0.261,0.235,north,6.7,No
2015/01/12,17:20,0.600,0.380,0.637,0.576,0.562,0.261,0.236,north,6.2,No
2015/01/12,17:30,0.599,0.379,0.638,0.575,0.561,0.261,0.235,north,6.5,No
2015/01/12,17:40,0.600,0.381,0.637,0.576,0.563,0.261,0.236,north,5.6,No
2015/01/12,17:50,0.599,0.381,0.635,0.577,0.562,0.260,0.235,north,5.3,No
2015/01/12,18:00,0.601,0.379,0.637,0.577,0.562,0.262,0.233,north,7.3,No
2015/01/12,18:10,0.600,0.381,0.637,0.575,0.564,0.261,0.236,north-northwest,6.7,No
2015/01/12,18:20,0.602,0.380,0.639,0.576,0.561,0.261,0.236,northwest,7.0,No
2015/01/12,18:30,0.600,0.381,0.637,0.576,0.562,0.260,0.235,northwest,5.2,No
2015/01/12,18:40,0.602,0.380,0.637,0.577,0.562,0.261,0.236,north-northwest,5.0,No
2015/01/12,18:50,0.601,0.379,0.637,0.576,0.562,0.261,0.234,north,6.0,No
2015/01/12,19:00,0.600,0.380,0.639,0.577,0.562,0.261,0.235,north,6.4,No
2015/01/12,19:10,0.602,0.379,0.638,0.577,0.561,0.261,0.235,north,6.7,No
2015/01/12,19:20,0.602,0.381,0.639,0.577,0.561,0.262,0.235,north-northwest,3.6,No
2015/01/12,19:30,0.601,0.381,0.638,0.577,0.561,0.261,0.235,north-northwest,3.6,No
2015/01/12,19:40,0.602,0.380,0.638,0.577,0.563,0.262,0.235,north-northeast,2.8,No
2015/01/12,19:50,0.598,0.380,0.638,0.576,0.563,0.262,0.235,north,1.2,No
2015/01/12,20:00,0.600,0.379,0.635,0.577,0.563,0.262,0.234,north-northwest,2.1,No
2015/01/12,20:10,0.601,0.380,0.637,0.578,0.562,0.263,0.234,north,3.4,No
2015/01/12,20:20,0.599,0.378,0.635,0.575,0.561,0.263,0.236,north,3.3,No
2015/01/12,20:30,0.601,0.379,0.636,0.577,0.561,0.262,0.235,north,4.0,No
2015/01/12,20:40,0.599,0.380,0.638,0.578,0.562,0.261,0.234,north-northwest,3.2,No
2015/01/12,20:50,0.599,0.379,0.637,0.575,0.561,0.261,0.235,north,3.8,No
2015/01/12,21:00,0.601,0.379,0.637,0.578,0.562,0.261,0.234,north,4.5,No
2015/01/12,21:10,0.600,0.380,0.637,0.576,0.562,0.261,0.234,north,4.2,No
2015/01/12,21:20,0.599,0.380,0.638,0.575,0.562,0.261,0.236,north,5.2,No
2015/01/12,21:30,0.601,0.379,0.636,0.577,0.562,0.262,0.235,north,5.5,No
2015/01/12,21:40,0.598,0.378,0.636,0.576,0.561,0.261,0.234,north-northwest,5.2,No
2015/01/12,21:50,0.599,0.379,0.638,0.576,0.563,0.262,0.234,north,4.8,No
2015/01/12,22:00,0.599,0.379,0.637,0.576,0.561,0.261,0.235,north,4.9,No
2015/01/12,22:10,0.601,0.378,0.636,0.577,0.562,0.261,0.235,north,4.7,No
2015/01/12,22:20,0.599,0.378,0.637,0.575,0.561,0.261,0.234,north,4.8,No
2015/01/12,22:30,0.600,0.377,0.636,0.574,0.561,0.260,0.235,north-northwest,5.3,No
2015/01/12,22:40,0.600,0.378,0.636,0.576,0.560,0.262,0.235,north-northwest,4.8,No
2015/01/12,22:50,0.598,0.379,0.638,0.577,0.560,0.261,0.235,north-northwest,4.2,No
2015/01/12,23:00,0.600,0.378,0.636,0.576,0.562,0.260,0.234,north,3.5,No
2015/01/12,23:10,0.599,0.379,0.636,0.577,0.562,0.261,0.236,north-northwest,3.1,No
2015/01/12,23:20,0.599,0.378,0.638,0.576,0.560,0.261,0.235,north-northwest,3.0,No
2015/01/12,23:30,0.600,0.378,0.636,0.576,0.562,0.261,0.236,north-northwest,3.1,No
2015/01/12,23:40,0.599,0.380,0.636,0.576,0.562,0.260,0.236,north,3.0,No
2015/01/12,23:50,0.599,0.379,0.635,0.575,0.562,0.260,0.235,north-northwest,2.8,No
